Location: Fours
(44.3167°N, 6.7000°E)
Time: 04:26:28
(UTC+00:00)

Cosmos 1934 Rocket - Pass Details

Date: 30 November 2020
Orbit: 937 x 1000 km, 83.0° (Epoch: 24 January)

Event Time Altitude Azimuth Distance (km) Brightness Sun altitude
Rises 18:35:49 0° 351° (N) 3,733 7.1 -28.0°
Reaches altitude 10° 18:38:22 10° 351° (N) 2,777 6.4 -28.4°
Maximum altitude 18:44:46 87° 265° (W) 1,000 3.9 -29.6°
Drops below altitude 10° 18:51:03 10° 176° (S) 2,728 6.3 -30.7°
Sets 18:53:32 0° 176° (S) 3,663 7.0 -31.2°
